Livingston, MT

3:24 AM MDT on September 26, 2017 (GMT -0600)
Mission

Weather History for KLVM - December, 2012

Change the Weather History Date:

Saturday, December 29, 2012

  Actual Average Record
Temperature  
Mean Temperature 23 °F 26 °F  
Max Temperature 30 °F 36 °F 54 °F (1980)
Min Temperature 16 °F 16 °F -26 °F (1978)
Degree Days  
Heating Degree Days 42 39  
Month to date heating degree days 1127  
Since 1 July heating degree days 3086  
Cooling Degree Days 0 0  
Month to date cooling degree days 0  
Year to date cooling degree days 230  
Moisture  
Dew Point 8 °F    
Average Humidity 53    
Maximum Humidity 65    
Minimum Humidity 43    
Precipitation  
Precipitation 0.00 in 0.02 in 0.18 in (1967)
Month to date precipitation 0.49  
Year to date precipitation 14.78  
Sea Level Pressure  
Sea Level Pressure 30.09 in    
Wind  
Wind Speed 25 mph (WSW)    
Max Wind Speed 36 mph    
Max Gust Speed 53 mph    
Visibility 10 miles    
Events      
T = Trace of Precipitation, MM = Missing Value Source: NWS Daily Summary

Daily Weather History Graph

Daily Weather History Graph

Search for Another Location

Airport or City:

Trip Planner

Search our weather history database for the weather conditions in past years. The results will help you decide how hot, cold, wet, or windy it might be!

Date:

Astronomy

Dec. 29, 2012 Rise Set
Actual Time 8:02 AM MST 4:46 PM MST
Civil Twilight 7:28 AM MST 5:20 PM MST
Nautical Twilight 6:50 AM MST 5:58 PM MST
Astronomical Twilight 6:14 AM MST 6:34 PM MST
Moon 6:28 PM MST (12/29) 8:33 AM MST (12/29)
Length of Visible Light 9h 52m
Length of Day
8h 43m
Full, 98% of the Moon is Illuminated
Dec 29
Full
Jan 4
Last Quarter
Jan 11
New
Jan 18
First Quarter
Jan 26
Full

Hourly Weather History & Observations

Time (MST) Temp. Windchill Dew Point Humidity Pressure Visibility Wind Dir Wind Speed Gust Speed Precip Events Conditions
12:53 AM 24.1 °F 7.1 °F 8.1 °F 51% 30.15 in 10.0 mi SW 28.8 mph 40.3 mph N/A   Clear
1:53 AM 24.1 °F 7.4 °F 8.1 °F 51% 30.15 in 10.0 mi SW 27.6 mph 38.0 mph N/A   Clear
2:53 AM 24.1 °F 8.7 °F 9.0 °F 53% 30.16 in 10.0 mi SW 23.0 mph 35.7 mph N/A   Clear
3:53 AM 24.1 °F 6.1 °F 9.0 °F 53% 30.14 in 10.0 mi SW 33.4 mph 48.3 mph N/A   Clear
4:53 AM 24.1 °F 5.9 °F 9.0 °F 53% 30.15 in 10.0 mi SW 34.5 mph 48.3 mph N/A   Clear
5:53 AM 24.1 °F 6.9 °F 8.1 °F 51% 30.15 in 10.0 mi SW 29.9 mph 41.4 mph N/A   Clear
6:53 AM 24.1 °F 5.9 °F 8.1 °F 51% 30.15 in 10.0 mi SW 34.5 mph 52.9 mph N/A   Clear
7:53 AM 23.0 °F 4.6 °F 8.1 °F 53% 30.13 in 10.0 mi SW 33.4 mph 48.3 mph N/A   Clear
8:53 AM 24.1 °F 8.3 °F 7.0 °F 48% 30.11 in 10.0 mi SW 24.2 mph 34.5 mph N/A   Clear
9:53 AM 24.1 °F 6.1 °F 7.0 °F 48% 30.13 in 10.0 mi SW 33.4 mph 42.6 mph N/A   Clear
10:53 AM 25.0 °F 7.3 °F 8.1 °F 49% 30.12 in 10.0 mi WSW 33.4 mph 47.2 mph N/A   Clear
11:53 AM 27.0 °F 9.6 °F 9.0 °F 47% 30.09 in 10.0 mi SW 35.7 mph 42.6 mph N/A   Clear
12:53 PM 28.0 °F 13.6 °F 9.0 °F 45% 30.06 in 10.0 mi WSW 24.2 mph - N/A   Clear
1:53 PM 30.0 °F 16.3 °F 10.0 °F 43% 30.02 in 10.0 mi WSW 24.2 mph 34.5 mph N/A   Clear
2:53 PM 30.0 °F 19.5 °F 10.0 °F 43% 30.03 in 10.0 mi NW 13.8 mph - N/A   Clear
3:06 PM 26.6 °F 14.7 °F 10.4 °F 51% 29.91 in 10.0 mi NW 15.0 mph - N/A   Clear
3:53 PM 25.0 °F 13.1 °F 10.0 °F 53% 30.04 in 10.0 mi NW 13.8 mph - N/A   Scattered Clouds
4:53 PM 23.0 °F 11.1 °F 10.0 °F 58% 30.04 in 10.0 mi WNW 12.7 mph - N/A   Partly Cloudy
5:53 PM 19.9 °F 10.1 °F 7.0 °F 57% 30.06 in 10.0 mi NW 8.1 mph - N/A   Mostly Cloudy
6:53 PM 16.0 °F 6.3 °F 6.1 °F 65% 30.08 in 10.0 mi West 6.9 mph - N/A   Overcast
7:53 PM 18.0 °F 7.7 °F 7.0 °F 62% 30.07 in 10.0 mi WNW 8.1 mph - N/A   Mostly Cloudy
8:53 PM 16.0 °F 3.6 °F 6.1 °F 65% 30.08 in 10.0 mi West 10.4 mph - N/A   Scattered Clouds
9:53 PM 16.0 °F 4.4 °F 5.0 °F 62% 30.08 in 10.0 mi West 9.2 mph - N/A   Clear
11:53 PM 16.0 °F 3.6 °F 5.0 °F 62% 30.07 in 10.0 mi West 10.4 mph - N/A   Scattered Clouds